Simultaneous Nadir Overpasses (SNOs) Predictions

Prediction of SNOs between GOES-15 and METOP-C Satellite Orbit:

Table of predicted SNOs for the next 14.0 days since TLE Epoch: 9/5/2023
Index Date Time (GOES-15) GOES-15 Lat,Lon METOP-C Lat,Lon Distance(km) Time Diff (sec)
1 09/06/2023 13:28:48 0.24, 122.90 -0.30, 120.52 271.33 80
2 09/07/2023 13:05:30 0.20, 121.87 1.00, 125.48 410.68 80
3 09/09/2023 01:24:26 -0.23, 120.19 -0.36, 120.83 73.54 80
4 09/10/2023 13:46:11 0.25, 118.69 -0.32, 116.16 287.92 80
5 09/11/2023 13:22:53 0.22, 117.65 0.98, 121.12 394.96 80
6 09/13/2023 01:41:50 -0.25, 115.95 -0.36, 116.48 59.60 80
7 09/14/2023 14:03:34 0.27, 114.44 -0.32, 111.81 300.07 80
8 09/15/2023 13:40:16 0.25, 113.39 0.99, 116.76 383.83 80
9 09/17/2023 01:59:13 -0.27, 111.68 -0.38, 112.11 50.24 80
10 09/18/2023 14:20:57 0.29, 110.15 -0.30, 107.45 308.03 80
